TimeCDT,TemperatureF,Dew PointF,Humidity,Sea Level PressureIn,VisibilityMPH,Wind Direction,Wind SpeedMPH,Gust SpeedMPH,PrecipitationIn,Events,Conditions,WindDirDegrees,DateUTC
12:15 AM,65.8,64.8,96,29.79,7.0,SSW,3.5,-,N/A,,Overcast,200,2012-10-14 05:15:00
12:35 AM,65.8,64.8,96,29.77,7.0,Calm,Calm,-,N/A,,Overcast,0,2012-10-14 05:35:00
12:55 AM,65.1,64.6,98,29.77,5.0,SE,6.9,-,N/A,,Overcast,140,2012-10-14 05:55:00
1:15 AM,65.3,64.8,98,29.76,5.0,SSE,5.8,-,N/A,Rain,Light Rain,150,2012-10-14 06:15:00
1:35 AM,65.3,65.1,99,29.76,5.0,SSE,6.9,16.1,0.01,Rain,Light Rain,150,2012-10-14 06:35:00
1:55 AM,65.8,65.3,98,29.75,5.0,South,8.1,-,0.02,Rain,Light Rain,180,2012-10-14 06:55:00
2:15 AM,65.8,65.5,99,29.75,5.0,South,10.4,-,0.02,Rain,Rain,190,2012-10-14 07:15:00
2:35 AM,65.8,65.5,99,29.73,5.0,SSW,13.8,21.9,0.07,Rain,Heavy Rain,200,2012-10-14 07:35:00
2:55 AM,65.3,65.3,100,29.72,4.0,SSW,18.4,21.9,0.17,Rain,Heavy Rain,200,2012-10-14 07:55:00
3:15 AM,65.3,65.3,100,29.71,4.0,South,11.5,-,0.06,Rain,Heavy Rain,190,2012-10-14 08:15:00
3:35 AM,64.9,64.9,100,29.70,4.0,South,11.5,18.4,0.12,Rain,Heavy Rain,170,2012-10-14 08:35:00
3:55 AM,64.8,64.8,100,29.68,5.0,South,13.8,19.6,0.15,Rain,Light Rain,170,2012-10-14 08:55:00
4:15 AM,64.8,64.8,100,29.67,5.0,South,13.8,18.4,N/A,Rain,Rain,170,2012-10-14 09:15:00
4:35 AM,64.6,64.4,99,29.65,5.0,SSE,12.7,-,0.02,Rain,Rain,160,2012-10-14 09:35:00
4:55 AM,64.6,64.2,99,29.63,7.0,SSE,12.7,-,0.03,Rain,Light Rain,160,2012-10-14 09:55:00
5:15 AM,64.6,63.9,98,29.61,7.0,SSE,15.0,-,N/A,Rain,Light Rain,160,2012-10-14 10:15:00
5:35 AM,64.4,63.9,98,29.60,5.0,South,19.6,24.2,0.02,Rain,Rain,170,2012-10-14 10:35:00
5:55 AM,64.4,64.4,100,29.59,7.0,South,17.3,24.2,N/A,Rain,Light Rain,180,2012-10-14 10:55:00
6:15 AM,64.9,63.9,96,29.59,10.0,SSW,20.7,27.6,N/A,,Overcast,200,2012-10-14 11:15:00
6:35 AM,64.8,63.5,96,29.59,10.0,SSW,21.9,28.8,N/A,,Mostly Cloudy,200,2012-10-14 11:35:00
6:55 AM,64.6,63.5,96,29.58,10.0,SSW,18.4,25.3,N/A,,Mostly Cloudy,200,2012-10-14 11:55:00
7:15 AM,64.4,63.0,95,29.56,10.0,South,12.7,21.9,N/A,,Mostly Cloudy,190,2012-10-14 12:15:00
7:35 AM,64.4,63.0,95,29.58,10.0,SSW,11.5,-,N/A,Rain,Light Rain,210,2012-10-14 12:35:00
7:55 AM,64.4,63.1,96,29.60,10.0,SW,15.0,-,N/A,,Mostly Cloudy,220,2012-10-14 12:55:00
8:15 AM,64.6,63.1,95,29.61,10.0,SW,15.0,-,N/A,,Overcast,220,2012-10-14 13:15:00
8:35 AM,64.9,63.5,95,29.60,10.0,SW,17.3,20.7,N/A,,Overcast,220,2012-10-14 13:35:00
8:55 AM,64.9,63.5,95,29.59,10.0,SSW,15.0,20.7,N/A,,Overcast,210,2012-10-14 13:55:00
9:15 AM,65.3,63.9,95,29.59,10.0,SW,16.1,20.7,N/A,,Overcast,220,2012-10-14 14:15:00
9:35 AM,66.2,63.7,92,29.59,10.0,SSW,16.1,20.7,N/A,,Overcast,210,2012-10-14 14:35:00
9:55 AM,65.8,63.0,90,29.58,10.0,SSW,17.3,24.2,N/A,,Overcast,200,2012-10-14 14:55:00
10:15 AM,66.2,62.8,89,29.57,10.0,South,17.3,28.8,N/A,,Overcast,190,2012-10-14 15:15:00
10:35 AM,65.5,63.3,93,29.56,4.0,SSW,19.6,31.1,N/A,Rain,Light Rain,200,2012-10-14 15:35:00
10:55 AM,64.4,63.7,98,29.55,5.0,SSW,25.3,32.2,0.01,Rain,Light Rain,200,2012-10-14 15:55:00
11:15 AM,64.9,63.5,95,29.55,10.0,SSW,25.3,33.4,N/A,,Overcast,200,2012-10-14 16:15:00
11:35 AM,65.8,62.8,90,29.55,10.0,SSW,26.5,33.4,N/A,,Overcast,210,2012-10-14 16:35:00
11:55 AM,67.6,64.4,89,29.53,10.0,SSW,19.6,31.1,N/A,,Mostly Cloudy,210,2012-10-14 16:55:00
12:15 PM,68.9,63.5,83,29.53,10.0,SW,21.9,36.8,N/A,,Mostly Cloudy,220,2012-10-14 17:15:00
12:35 PM,69.3,63.0,80,29.52,10.0,SSW,27.6,34.5,N/A,,Mostly Cloudy,210,2012-10-14 17:35:00
12:55 PM,70.9,62.8,75,29.51,10.0,SW,27.6,32.2,N/A,,Scattered Clouds,220,2012-10-14 17:55:00
1:15 PM,69.6,63.0,79,29.49,10.0,SSW,25.3,34.5,N/A,,Mostly Cloudy,210,2012-10-14 18:15:00
1:35 PM,69.8,62.2,77,29.47,10.0,SSW,27.6,35.7,N/A,Thunderstorm,Mostly Cloudy,200,2012-10-14 18:35:00
1:55 PM,66.0,62.8,89,29.48,7.0,SW,20.7,38.0,0.01,Rain-Thunderstorm,Thunderstorms and Rain,230,2012-10-14 18:55:00
2:15 PM,64.6,61.7,90,29.47,10.0,SW,12.7,19.6,0.01,Rain-Thunderstorm,Light Thunderstorms and Rain,230,2012-10-14 19:15:00
2:35 PM,67.1,61.9,83,29.45,10.0,SSW,20.7,26.5,0.01,,Scattered Clouds,210,2012-10-14 19:35:00
2:55 PM,64.8,60.4,86,29.45,1.5,SW,23.0,32.2,0.22,Rain,Heavy Rain,230,2012-10-14 19:55:00
3:15 PM,63.7,61.2,91,29.44,10.0,SW,20.7,27.6,0.01,,Mostly Cloudy,220,2012-10-14 20:15:00
3:35 PM,61.2,55.2,81,29.44,10.0,WSW,29.9,42.6,0.01,,Mostly Cloudy,240,2012-10-14 20:35:00
3:55 PM,58.6,55.4,89,29.46,3.0,WSW,28.8,32.2,0.01,,Overcast,240,2012-10-14 20:55:00
4:15 PM,57.7,56.5,96,29.46,10.0,WSW,21.9,35.7,N/A,,Overcast,240,2012-10-14 21:15:00
4:35 PM,58.1,57.2,97,29.47,7.0,WSW,19.6,28.8,N/A,,Overcast,250,2012-10-14 21:35:00
4:55 PM,59.5,58.3,96,29.48,10.0,West,27.6,34.5,N/A,,Overcast,280,2012-10-14 21:55:00
5:15 PM,53.8,52.3,95,29.53,2.5,WNW,34.5,50.6,N/A,Rain,Rain,300,2012-10-14 22:15:00
5:35 PM,52.5,51.3,95,29.58,10.0,WNW,29.9,43.7,N/A,,Overcast,300,2012-10-14 22:35:00
5:55 PM,52.3,50.9,95,29.62,10.0,WNW,29.9,36.8,N/A,,Overcast,290,2012-10-14 22:55:00
6:15 PM,52.9,50.2,91,29.63,10.0,WNW,27.6,35.7,N/A,,Overcast,290,2012-10-14 23:15:00
6:35 PM,53.1,50.2,90,29.66,10.0,WNW,23.0,32.2,N/A,,Overcast,300,2012-10-14 23:35:00
6:55 PM,52.9,48.4,85,29.67,10.0,WNW,24.2,36.8,N/A,,Overcast,300,2012-10-14 23:55:00
7:15 PM,52.9,48.2,84,29.70,10.0,WNW,21.9,36.8,N/A,,Overcast,300,2012-10-15 00:15:00
7:35 PM,52.7,47.7,83,29.71,10.0,WNW,23.0,33.4,N/A,,Overcast,290,2012-10-15 00:35:00
7:55 PM,52.3,47.7,84,29.72,10.0,WNW,20.7,29.9,N/A,,Overcast,290,2012-10-15 00:55:00
8:15 PM,52.2,47.3,83,29.73,10.0,WNW,17.3,25.3,N/A,,Overcast,290,2012-10-15 01:15:00
8:35 PM,52.0,47.7,85,29.75,10.0,WNW,13.8,21.9,N/A,,Overcast,290,2012-10-15 01:35:00
8:55 PM,52.0,47.5,85,29.75,10.0,WNW,17.3,-,N/A,,Overcast,290,2012-10-15 01:55:00
9:15 PM,52.0,47.5,85,29.76,10.0,WNW,20.7,32.2,N/A,,Overcast,290,2012-10-15 02:15:00
9:35 PM,51.8,47.7,86,29.77,10.0,WNW,13.8,26.5,N/A,,Overcast,300,2012-10-15 02:35:00
9:55 PM,50.9,49.3,94,29.77,7.0,WNW,13.8,20.7,N/A,,Overcast,300,2012-10-15 02:55:00
10:15 PM,50.4,49.5,97,29.78,4.0,NW,9.2,-,N/A,Rain,Rain,320,2012-10-15 03:15:00
10:35 PM,49.5,48.2,95,29.78,7.0,NW,15.0,23.0,N/A,,Overcast,310,2012-10-15 03:35:00
10:55 PM,49.5,47.3,92,29.79,10.0,NW,11.5,20.7,N/A,,Overcast,320,2012-10-15 03:55:00
11:15 PM,49.3,46.6,90,29.81,10.0,NW,13.8,19.6,N/A,,Overcast,310,2012-10-15 04:15:00
11:35 PM,49.1,45.9,89,29.81,10.0,WNW,13.8,-,N/A,,Overcast,300,2012-10-15 04:35:00
11:55 PM,48.2,44.6,87,29.81,10.0,WNW,12.7,-,N/A,,Overcast,300,2012-10-15 04:55:00